Location: Unspecified
(64.9000°N, 0.0000°E)
Time: 11:39:01
(UTC+00:00)

Transit 2A Rocket - Pass Details

Date: 23 June 2019
Orbit: 588 x 915 km, 66.7° (Epoch: 21 July)

Event Time Altitude Azimuth Distance (km) Brightness Sun altitude
Rises 11:31:55 0° 224° (SW) 3,535 8.8 48.2°
Reaches altitude 10° 11:34:30 10° 221° (SW) 2,578 8.3 48.3°
Maximum altitude 11:40:25 62° 142° (SE) 973 7.2 48.4°
Drops below altitude 10° 11:45:59 10° 63° (ENE) 2,424 7.6 48.4°
Sets 11:48:21 0° 61° (ENE) 3,310 8.1 48.5°
